Location: Burzi?i
(45.0869°N, 16.0577°E)
Time: 11:57:22
(UTC+00:00)

Cosmos 1486 Rocket - Pass Details

Date: 29 October 2020
Orbit: 758 x 784 km, 74.1° (Epoch: 27 November)

Event Time Altitude Azimuth Distance (km) Brightness Sun altitude
Rises 17:05:56 0° 338° (NNW) 3,283 7.5 -14.3°
Reaches altitude 10° 17:08:20 10° 338° (NNW) 2,350 6.7 -14.8°
Maximum altitude 17:13:42 86° 252° (WSW) 790 4.1 -15.7°
Drops below altitude 10° 17:19:00 10° 162° (SSE) 2,324 6.3 -16.6°
Sets 17:21:21 0° 162° (SSE) 3,244 7.1 -17.1°
